Theta_e
337 336 337 339 338 338 335 335 334 333 329 326 326 325 323 327 333 334 335 337 337 336 336 334 332 331 332 333 333 333 333 334 334 334 334 334 334 333 332 331 331 331 331 331 332 330 324 319 317 313 308 306 305 313 315 312 317 317 321 324 324 326 325 322 318 317 318 318 319 321 323 319 317 317 318 320 321 321 321 323 325 326 326 325 324
333 334 337 338 338 337 335 336 335 333 330 327 325 326 324 329 333 333 336 336 337 335 334 333 331 331 331 332 333 333 334 334 334 334 334 334 334 333 331 331 331 330 330 331 332 329 324 321 318 315 309 306 305 311 313 312 314 313 317 321 322 322 319 320 321 321 322 322 322 324 326 325 323 322 322 322 323 323 324 325 326 327 326 326 325
330 335 337 337 337 337 335 336 335 333 331 328 326 325 322 328 333 332 335 336 336 334 332 331 331 331 330 332 333 333 333 334 334 334 334 334 334 333 332 331 331 331 330 329 328 326 321 319 317 314 309 306 306 309 311 309 311 312 315 318 318 319 318 320 320 320 322 324 325 326 327 327 325 323 320 320 321 320 322 324 326 327 325 326 325
330 335 338 337 336 336 336 336 336 334 330 329 327 326 321 324 332 332 334 336 335 332 331 332 331 331 331 332 333 332 333 334 334 334 335 334 334 334 333 332 331 330 329 327 326 322 319 318 316 312 308 306 306 308 310 310 311 313 315 316 317 318 319 319 319 318 320 322 322 325 327 326 323 319 314 313 314 314 318 321 324 325 324 325 325
330 335 339 336 335 336 337 336 336 334 330 329 328 327 322 322 330 332 334 336 334 331 331 333 331 331 331 332 331 332 334 334 334 334 334 334 334 334 333 331 330 329 327 326 325 321 319 319 313 309 308 305 307 309 309 310 311 312 314 315 317 318 319 319 318 317 318 317 316 322 325 321 316 312 310 311 311 311 313 318 322 325 324 324 323
331 335 339 337 336 337 337 337 336 334 329 329 330 326 321 321 329 332 334 335 334 332 332 333 332 331 331 331 330 333 334 334 334 335 334 335 334 333 332 330 328 327 326 326 324 322 320 316 310 309 308 305 307 309 309 309 310 311 312 314 316 316 317 317 317 316 316 312 310 315 317 316 315 314 316 317 316 314 312 313 317 320 321 318 320
332 336 339 337 337 338 337 337 336 333 329 330 331 326 320 319 327 332 334 335 334 334 334 333 332 331 331 331 329 333 334 334 335 334 334 334 332 330 329 327 326 326 325 324 323 321 318 312 309 308 306 307 309 310 309 309 309 310 311 312 312 313 313 313 313 312 311 308 309 312 314 319 323 322 322 321 319 318 315 314 313 313 314 313 318
335 337 339 337 337 337 336 336 335 332 330 330 331 327 319 316 323 332 335 334 334 333 333 333 332 331 331 330 329 332 334 334 335 334 333 331 328 327 326 325 324 324 323 322 320 318 314 309 308 309 309 310 311 311 309 308 308 308 309 309 309 310 310 309 309 308 308 308 311 313 317 324 327 325 323 323 323 322 320 319 316 314 316 317 322
336 338 338 337 337 336 336 335 333 332 333 332 331 329 321 316 320 329 335 333 334 334 332 333 332 331 330 328 328 330 332 332 332 332 331 329 327 325 324 323 322 321 320 319 317 314 310 308 311 312 313 312 311 311 310 308 307 307 308 308 308 308 308 308 307 308 308 309 314 316 320 325 328 327 324 325 326 325 325 324 322 321 322 324 325
336 337 337 337 337 335 334 333 331 332 335 332 331 330 324 320 319 325 333 333 333 334 332 332 331 331 329 326 326 326 327 327 326 328 329 328 326 324 323 321 320 318 317 316 313 311 308 310 314 314 313 312 310 311 311 309 308 307 307 307 308 307 307 307 307 309 309 313 319 321 321 325 328 328 325 327 328 327 327 326 326 326 326 327 327
336 336 336 337 337 333 329 328 330 332 334 333 331 330 325 322 323 323 327 332 333 333 333 332 331 331 330 326 323 323 322 320 319 322 326 327 325 322 320 319 319 317 316 313 310 309 311 313 314 313 314 311 309 312 311 309 307 307 307 307 308 307 307 307 309 310 312 318 322 323 325 328 329 327 327 329 328 328 329 328 328 328 327 328 328
336 336 336 336 336 330 325 327 331 333 334 333 331 330 326 322 326 326 322 328 332 332 332 332 331 331 331 328 322 320 318 316 315 317 322 324 322 319 320 321 321 319 316 312 309 309 314 317 313 310 314 311 308 313 311 307 308 307 308 308 308 307 308 308 311 313 316 321 323 326 328 329 329 328 329 329 329 329 329 330 329 329 329 329 329
336 336 335 336 335 330 327 329 332 333 333 333 331 329 326 324 327 329 324 325 330 331 331 332 332 331 331 329 322 319 318 315 312 313 318 321 320 321 323 324 322 319 314 310 308 308 315 320 316 310 312 311 310 313 310 306 308 308 308 308 308 309 309 311 314 318 320 323 325 328 330 329 329 329 330 330 330 330 330 331 330 331 330 330 330
336 336 336 337 335 331 330 331 332 333 333 330 329 327 326 328 328 329 325 322 327 330 330 331 332 331 331 328 322 320 320 317 315 316 319 321 322 324 325 323 320 316 311 307 307 311 314 318 319 313 311 313 314 314 309 307 309 309 309 309 309 310 312 315 318 321 322 324 327 329 330 330 329 330 330 330 330 331 331 331 331 331 331 331 331
336 336 336 337 336 331 330 331 331 332 331 325 323 323 325 329 329 327 324 322 326 329 330 331 332 331 330 327 323 322 321 321 322 322 323 323 325 326 323 319 317 313 308 306 307 311 313 318 318 314 312 313 316 316 310 308 309 309 309 309 310 312 315 319 321 323 326 327 330 331 331 330 330 330 331 331 331 332 331 331 331 331 331 331 330
336 336 336 336 333 331 330 328 329 329 327 322 319 322 325 329 328 325 324 322 325 328 329 330 331 330 328 326 326 323 322 325 325 324 324 325 326 324 320 315 313 309 307 308 309 311 313 317 317 314 311 311 316 317 311 309 310 310 310 310 312 315 318 321 324 326 328 330 331 332 331 331 331 331 332 332 332 332 332 331 331 331 330 330 329
336 335 334 332 331 332 330 327 327 325 322 318 319 324 328 329 326 323 323 324 326 328 328 330 330 329 327 327 327 326 325 326 326 325 325 326 325 322 317 313 309 307 309 310 311 313 316 317 318 314 309 314 319 315 310 311 312 312 312 313 316 319 320 324 327 328 330 331 332 332 331 331 331 331 332 332 332 332 332 331 331 330 330 329 329
336 335 332 330 331 332 332 329 325 323 322 318 319 324 326 325 321 320 323 325 327 328 328 330 330 329 328 328 328 328 327 326 326 326 326 326 324 320 315 311 308 307 309 313 315 319 321 321 321 319 316 319 318 311 310 313 314 314 315 317 319 322 323 326 329 330 331 332 331 332 331 332 332 332 332 332 332 332 331 331 330 329 329 328 328
336 333 331 330 332 332 332 331 326 324 324 321 320 320 318 317 317 319 324 326 328 329 329 330 331 330 328 329 330 329 327 326 327 327 327 325 321 316 312 308 307 308 310 316 320 321 321 321 322 321 321 319 314 313 314 315 317 316 317 319 321 324 326 328 330 330 331 331 331 331 331 332 332 332 332 332 332 331 331 330 329 328 327 327 326
335 332 330 332 333 332 333 331 328 327 323 321 320 316 312 313 316 318 324 327 328 329 330 330 331 330 329 330 330 329 327 327 328 327 326 322 317 312 309 307 307 311 316 319 320 321 322 321 321 322 322 317 313 317 318 319 321 318 319 322 324 325 327 329 330 330 330 331 331 331 332 332 332 331 332 332 331 331 329 328 328 327 326 326 325
335 332 331 333 333 332 333 330 329 326 318 317 318 316 314 314 317 318 324 328 328 330 330 330 331 330 330 331 330 329 328 329 329 326 323 318 313 310 308 307 309 314 319 321 321 324 325 322 320 321 321 315 313 318 319 322 322 321 324 326 326 326 327 330 330 330 331 331 331 331 331 332 331 331 331 330 330 329 328 327 326 326 325 324 324
335 333 332 333 333 333 334 330 329 322 315 321 322 322 321 319 321 322 326 330 330 330 330 331 332 332 332 331 330 329 329 330 328 325 320 314 311 309 309 310 313 317 318 319 321 323 323 320 320 320 320 316 315 320 321 323 324 326 328 327 328 327 328 331 331 331 331 331 331 331 331 331 331 330 330 330 329 328 327 326 326 325 324 323 322
335 334 332 333 333 334 333 330 328 321 319 328 328 328 328 326 328 328 330 331 331 330 330 332 332 332 332 331 330 330 330 330 327 323 317 312 311 310 311 314 317 319 317 316 318 320 319 319 318 318 319 317 318 321 322 323 325 328 329 325 325 327 328 330 330 330 330 330 330 330 330 329 330 329 329 329 328 327 326 324 324 323 322 321 320
336 335 333 334 334 334 333 330 328 320 322 330 329 330 331 330 331 331 331 331 331 332 331 332 332 332 332 331 330 330 330 329 325 319 314 312 312 311 313 316 318 319 319 318 319 319 319 319 317 317 319 319 320 322 322 324 324 326 327 325 324 327 330 330 329 328 328 328 328 328 327 328 329 329 328 328 327 326 324 322 321 317 315 315 313
336 335 334 334 334 334 334 330 327 322 323 328 329 331 330 331 332 331 332 332 332 332 332 333 332 332 331 331 331 331 331 328 323 315 312 313 312 313 314 316 319 320 321 321 322 321 320 319 319 319 320 320 321 322 322 323 324 323 324 324 324 327 329 329 328 327 327 327 326 326 326 327 328 327 326 325 324 323 321 318 315 311 309 308 306
335 335 336 335 334 334 334 331 327 324 325 327 329 331 331 332 331 332 333 332 332 332 332 333 332 332 331 331 331 331 330 327 320 313 313 314 314 314 315 317 320 321 321 321 322 322 321 321 321 321 321 321 321 321 322 322 323 323 323 323 323 325 327 328 327 326 327 326 325 325 325 326 326 325 324 323 321 320 318 313 309 307 305 304 304
336 336 337 335 335 334 333 332 328 325 326 327 328 330 331 331 332 332 333 332 332 332 332 332 332 332 331 331 331 331 330 323 316 313 314 316 316 316 316 318 320 320 321 322 323 322 322 321 321 322 321 322 321 321 321 321 322 323 323 323 323 324 325 326 326 326 326 326 325 324 324 324 324 323 322 321 320 318 314 309 306 305 304 305 306
335 336 337 336 335 335 334 331 329 325 324 326 328 330 331 331 332 332 332 332 332 332 332 332 332 332 332 332 332 331 327 319 314 314 316 317 318 318 318 319 320 320 320 322 323 324 323 320 321 322 321 321 322 322 321 321 321 322 322 323 323 324 324 325 325 325 325 325 324 323 323 323 322 322 320 319 318 314 310 306 305 304 304 306 307
334 335 336 336 335 336 334 330 329 324 322 326 327 328 330 330 331 331 332 332 331 332 332 332 332 332 332 332 332 330 323 316 313 315 317 319 320 320 320 320 321 321 321 322 323 324 323 322 321 322 321 322 323 323 322 321 321 322 321 322 323 324 324 324 323 324 324 324 323 323 323 322 321 319 318 316 314 310 308 307 306 306 306 306 307
334 334 335 335 334 334 334 331 330 325 322 325 327 327 328 328 329 330 330 331 331 332 332 331 332 331 332 332 330 326 319 314 314 316 319 321 321 321 321 322 321 322 322 323 325 324 323 322 322 322 322 321 323 324 323 323 322 322 321 322 323 323 322 322 321 321 321 321 321 321 320 319 318 317 315 313 310 307 305 305 306 307 307 306 306
334 333 334 334 333 333 334 333 331 327 322 323 326 327 327 327 328 329 329 330 331 331 332 331 331 331 332 330 327 321 315 314 315 317 320 322 322 322 322 322 321 322 322 323 324 323 323 323 322 322 321 321 322 323 323 323 323 322 322 321 321 321 321 320 319 318 317 317 317 317 317 317 316 315 311 308 305 303 302 302 304 306 307 306 306
333 333 333 333 333 332 332 333 333 331 324 321 325 327 327 328 328 328 328 328 329 330 331 331 331 332 331 328 324 318 314 314 317 319 321 323 323 323 323 321 321 322 321 322 322 322 323 322 321 322 321 321 322 321 322 323 322 322 321 320 320 319 319 318 317 316 316 317 317 316 316 316 314 311 306 302 301 300 300 299 301 304 306 306 306
331 333 333 332 332 331 331 331 333 333 324 318 323 326 326 327 327 327 328 328 329 329 331 331 332 331 329 325 321 316 313 316 319 320 322 324 324 324 323 321 322 323 322 322 322 323 323 321 321 322 321 322 321 321 322 322 322 321 320 320 319 318 318 316 315 315 315 315 315 315 314 313 310 305 301 299 298 298 298 298 298 301 304 305 305
327 331 332 332 332 331 330 329 331 333 326 317 321 325 325 326 327 327 328 328 329 329 330 331 330 329 326 322 318 314 314 317 321 322 323 324 324 324 323 322 323 324 324 323 322 322 323 321 321 322 321 322 322 321 322 321 321 320 320 319 318 317 316 314 313 314 314 314 313 312 312 310 306 302 299 297 296 296 296 296 297 298 301 303 303
325 326 328 330 331 331 330 330 330 331 329 320 318 321 323 326 327 327 328 328 329 330 331 330 328 326 323 319 315 313 314 319 322 323 323 324 325 324 324 323 323 324 325 324 322 323 323 321 321 322 322 322 322 321 321 321 320 319 318 318 317 316 315 313 313 313 313 312 312 311 310 307 303 300 297 296 295 295 295 295 296 296 297 299 300
323 323 324 325 327 328 329 330 329 330 330 324 318 318 322 325 326 327 328 328 330 331 330 328 326 324 320 315 313 313 314 319 322 323 323 324 324 324 324 324 324 324 325 325 324 324 323 322 322 322 321 322 322 321 320 320 320 319 318 317 317 315 314 313 312 312 311 310 310 310 308 304 301 299 297 295 295 295 295 294 294 294 295 295 296
322 322 322 323 324 324 327 330 330 329 328 326 322 319 320 322 324 326 328 329 330 330 328 327 324 322 318 313 312 313 314 319 323 323 324 324 324 324 323 323 323 323 324 324 324 324 323 322 322 321 321 321 321 321 320 320 319 318 318 317 315 313 312 312 311 310 310 310 309 308 305 301 299 298 296 295 295 295 294 294 294 293 293 293 293
321 321 322 323 323 323 325 328 329 328 328 327 322 321 321 321 324 327 329 330 330 329 328 326 324 321 316 313 311 311 314 320 323 324 325 324 323 323 323 322 323 323 324 324 324 323 322 322 322 321 321 321 321 321 320 319 319 317 316 315 313 312 311 310 310 309 309 308 307 304 301 299 297 295 294 294 294 294 294 294 293 293 293 292 292
320 321 321 322 323 324 324 326 327 327 329 329 325 325 326 323 325 328 329 330 329 328 327 325 324 320 315 312 311 312 318 322 323 324 325 325 324 323 323 323 323 323 324 323 323 322 322 321 321 321 321 320 320 319 319 319 318 315 314 313 312 311 310 309 308 308 308 306 303 301 299 297 295 294 294 294 294 294 294 293 293 292 292 292 292
319 320 320 321 322 323 324 323 323 324 327 329 327 327 326 324 327 329 329 328 327 326 326 324 322 318 313 312 312 315 321 324 323 324 324 324 324 324 324 324 323 323 323 323 323 322 321 321 321 321 320 320 319 319 318 318 316 314 313 312 311 309 307 307 307 306 305 303 300 298 296 295 294 294 294 294 294 294 293 293 292 292 292 291 291
319 319 320 320 321 322 323 323 323 322 324 327 327 327 325 323 326 329 328 328 326 326 324 322 319 315 313 313 314 318 323 325 325 325 324 324 325 325 325 324 323 323 323 323 323 322 321 320 320 320 320 319 319 318 318 317 313 311 312 311 309 307 305 305 305 303 302 300 298 297 295 294 294 294 295 295 294 294 293 292 292 291 291 291 291
319 319 320 320 320 320 321 322 323 322 322 325 327 327 326 324 324 326 328 327 326 326 324 321 317 314 314 316 318 322 324 325 325 325 324 325 326 326 326 324 324 323 323 323 323 322 321 321 320 320 319 318 317 317 316 315 312 310 311 309 305 303 303 303 301 300 299 298 296 295 295 295 296 296 296 295 294 293 292 292 291 291 291 291 291
318 319 319 319 319 320 320 320 322 322 322 323 325 326 327 326 325 325 326 326 324 324 324 320 317 315 316 319 321 322 322 322 324 325 325 326 327 327 326 325 324 324 323 323 322 322 321 321 320 319 318 317 316 315 315 313 311 310 309 307 304 301 298 298 298 297 296 296 295 295 295 296 297 297 296 294 293 292 292 291 290 290 290 290 290
315 317 317 318 318 319 319 320 320 321 322 322 323 325 325 325 325 325 325 325 323 323 322 319 316 315 317 320 319 319 320 321 322 324 325 326 326 326 326 325 325 324 323 323 322 322 322 321 320 318 317 315 314 313 312 311 310 309 307 304 302 300 296 296 296 296 295 295 295 296 297 298 298 297 296 294 293 292 291 290 290 290 290 290 290
311 313 314 315 317 318 319 319 318 320 322 322 323 324 324 323 324 325 324 324 324 322 320 318 316 316 318 317 316 320 323 323 323 324 325 326 325 325 325 325 325 324 323 323 323 323 322 321 320 319 316 313 312 311 310 310 310 309 306 303 301 299 299 299 297 295 295 296 296 297 298 298 298 297 296 295 294 293 291 290 290 289 289 289 289
307 310 312 312 313 316 319 319 317 318 321 322 322 323 323 322 323 324 324 324 324 323 322 320 318 316 318 317 317 322 325 324 324 325 325 325 325 325 325 324 324 324 324 323 323 322 322 322 320 318 315 311 309 308 308 308 308 308 306 304 302 301 302 301 298 296 296 296 297 297 297 297 297 296 295 295 294 293 292 290 290 289 289 289 289
305 307 310 312 311 313 317 319 318 317 320 321 321 322 322 322 323 325 325 325 325 324 324 322 319 317 316 316 317 321 323 323 324 325 325 325 324 325 325 324 324 323 323 323 323 322 321 321 319 316 312 309 307 306 306 306 307 306 305 304 303 302 302 301 299 298 296 295 295 296 296 296 296 295 294 294 294 293 292 290 289 289 289 289 289
304 305 307 311 311 312 315 318 318 318 320 321 321 321 322 322 322 324 324 324 323 324 324 322 319 318 316 316 317 320 322 323 324 324 325 324 324 324 324 324 323 322 323 323 323 322 321 319 316 312 308 306 305 304 304 304 305 305 305 304 303 302 301 300 300 299 297 296 295 295 295 295 295 294 294 294 294 293 291 290 289 289 289 288 288
302 303 305 308 311 312 314 316 317 317 319 319 319 319 320 321 321 321 322 322 321 322 323 323 320 319 318 317 318 321 324 324 324 324 325 325 324 324 323 322 322 322 322 322 322 320 317 315 313 309 305 304 304 304 303 302 302 303 303 303 303 302 301 300 299 298 298 297 296 295 295 294 294 294 294 294 293 293 291 290 289 289 289 288 288
301 302 303 306 309 312 314 315 316 316 316 316 316 316 317 319 320 320 320 320 320 321 322 323 321 320 319 319 319 321 323 325 325 325 325 325 324 324 323 321 320 321 321 320 319 317 314 310 307 305 303 302 303 303 302 300 301 302 302 302 303 303 303 301 300 299 298 298 297 296 295 295 294 294 293 293 293 292 291 290 289 289 289 288 288
300 301 301 303 306 310 313 315 316 315 315 314 314 314 315 316 318 320 321 320 320 320 320 322 322 321 321 320 320 320 322 323 324 324 324 325 325 325 324 321 319 319 319 317 313 312 310 306 303 301 301 301 302 303 302 300 300 301 301 303 305 305 304 302 300 299 298 298 297 297 296 295 294 293 292 292 292 291 290 290 289 289 289 288 288
Wind_Speed
28 30 31 29 28 26 24 23 21 20 20 19 19 20 20 21 20 19 18 19 19 19 19 18 18 17 17 16 15 14 14 14 14 15 15 15 14 15 14 13 12 12 13 12 11 10 9 12 13 12 10 8 8 11 13 13 13 16 18 18 17 16 17 16 17 20 19 18 18 16 16 17 16 16 17 18 18 18 18 19 17 14 14 13 13
30 33 32 31 29 27 25 24 22 21 20 20 20 20 21 22 21 20 20 20 19 19 20 19 18 17 17 16 15 15 15 15 15 15 15 15 15 14 13 13 12 11 11 9 8 6 5 8 11 10 8 8 8 10 15 15 15 17 19 19 19 18 18 18 19 21 20 20 20 19 17 16 14 13 13 14 14 15 16 17 16 12 12 13 12
31 35 33 32 29 28 26 25 23 22 21 20 21 21 23 24 22 20 21 21 21 21 20 19 18 17 17 16 15 15 15 16 16 16 15 15 14 13 13 12 11 10 9 6 4 2 3 6 9 8 6 7 9 12 17 17 17 19 20 20 20 19 20 19 20 21 21 20 20 18 16 14 13 12 12 12 11 12 13 13 14 10 11 12 11
31 36 34 33 30 29 27 26 24 23 22 21 22 22 24 25 23 21 21 21 22 21 20 19 18 18 17 16 15 15 16 16 16 16 15 15 14 13 13 12 10 9 6 3 0 2 4 6 6 5 5 8 10 14 18 19 20 21 21 22 21 20 20 20 20 20 20 19 18 16 12 11 12 11 11 11 10 9 10 10 11 9 9 10 9
31 35 31 32 31 29 28 27 25 24 23 22 22 22 24 27 25 23 22 22 22 21 20 18 18 18 17 17 15 16 16 16 16 16 16 15 14 13 12 11 8 5 3 0 2 5 7 7 4 3 5 8 10 15 19 19 21 21 22 22 21 20 20 19 18 18 18 16 15 13 9 10 11 11 11 10 9 8 8 7 8 7 7 8 8
33 34 29 32 31 28 29 28 26 26 24 23 23 22 24 28 27 24 24 23 22 21 19 18 18 18 17 17 16 16 17 16 17 16 15 14 13 11 10 7 5 3 1 2 4 7 9 7 3 2 7 9 11 16 19 19 20 20 21 21 20 19 18 18 17 15 14 12 12 12 11 12 12 12 12 12 11 9 7 6 5 4 5 6 7
33 31 27 30 31 30 30 29 28 26 26 25 24 23 23 28 28 26 25 23 23 21 20 19 18 18 18 17 16 17 17 16 16 15 14 12 10 8 6 5 3 2 2 4 6 8 9 7 2 5 9 10 11 16 18 19 19 19 19 19 18 17 16 16 14 13 11 11 11 13 13 11 11 13 14 14 13 13 12 9 6 5 5 6 8
29 26 24 27 30 32 32 31 29 27 27 26 25 24 22 27 30 27 26 25 24 22 20 19 19 19 18 18 17 17 17 16 14 13 12 10 8 6 4 3 1 1 3 6 8 9 8 5 4 9 11 11 12 15 18 18 18 17 17 17 16 15 15 14 12 11 10 10 11 13 13 9 9 12 15 15 15 15 16 15 13 11 11 12 13
29 24 23 24 27 32 33 32 30 28 26 26 26 26 23 26 31 30 27 26 25 23 21 21 20 19 18 18 18 17 16 15 13 12 10 8 6 4 2 0 2 4 5 8 9 9 7 3 8 11 12 12 13 15 17 18 18 16 15 15 14 13 12 12 11 11 11 11 11 11 12 10 7 8 13 16 15 16 17 16 15 15 16 16 16
28 24 22 22 26 32 33 33 31 29 26 26 26 27 25 25 30 31 29 27 26 24 22 21 20 19 19 19 18 17 15 14 12 11 9 7 5 3 1 3 4 6 7 8 7 7 5 6 11 12 13 14 13 14 16 17 17 16 15 14 13 12 11 11 11 11 12 11 10 11 13 13 9 8 12 14 14 15 16 16 15 16 16 15 16
26 25 23 22 26 31 33 34 32 30 26 25 26 26 26 26 28 30 30 29 27 25 23 21 20 19 19 19 18 16 14 13 12 11 10 7 5 3 4 5 6 7 6 6 5 4 4 8 12 13 14 14 14 14 15 16 16 15 14 14 13 12 12 12 12 12 12 10 10 10 12 14 11 10 12 13 12 13 14 15 15 15 16 15 14
26 25 23 23 26 31 33 34 33 30 27 26 26 27 27 27 27 28 30 31 28 26 24 22 21 20 20 19 17 15 13 12 12 12 10 7 5 4 4 6 6 5 5 5 5 3 6 10 12 14 14 15 14 14 15 15 15 13 13 13 13 12 12 12 13 14 13 12 12 11 11 13 12 11 12 12 12 12 13 14 14 15 15 15 14
27 26 24 23 27 32 33 34 32 31 29 28 27 28 28 27 27 26 28 31 30 27 25 23 22 21 20 18 16 15 13 13 13 12 10 8 6 4 5 6 5 5 4 5 5 4 7 11 12 14 14 15 15 13 15 15 14 13 13 13 13 13 12 13 14 15 15 15 14 13 12 13 11 11 12 11 11 12 13 14 14 15 17 16 16
27 26 23 23 28 32 34 33 32 31 30 29 28 30 30 27 27 26 26 31 31 28 26 24 23 21 20 17 15 16 14 14 14 13 11 9 7 6 6 5 4 4 5 5 4 4 8 11 11 14 15 15 14 14 15 15 13 13 13 13 13 13 14 15 16 16 17 17 17 14 13 11 11 11 11 11 12 14 15 16 17 18 20 20 20
26 27 24 23 26 31 33 33 32 31 29 27 28 31 31 28 28 26 25 30 31 29 27 24 23 21 19 17 16 17 17 16 16 14 13 10 8 7 6 5 4 5 5 5 5 5 8 11 11 14 15 15 14 13 15 14 13 13 13 13 13 14 16 16 16 17 18 19 17 14 12 11 11 11 12 13 14 17 18 19 20 20 20 20 20
27 28 24 21 23 29 31 32 32 30 28 26 27 31 31 29 28 26 26 31 31 29 27 25 24 22 20 19 19 19 19 18 16 14 12 10 9 7 6 5 5 5 5 5 5 6 9 12 12 12 14 14 14 13 14 15 14 14 14 14 15 16 17 17 17 19 19 18 15 12 11 11 11 12 13 16 17 19 20 20 20 20 20 19 19
27 28 24 22 23 25 27 29 32 29 28 27 28 31 31 30 29 27 29 32 31 29 27 25 24 22 21 20 20 20 19 17 15 13 11 11 9 7 6 6 6 5 6 6 7 10 12 13 12 10 12 14 13 13 15 15 15 15 15 16 17 17 17 18 18 19 17 15 14 12 12 12 13 15 17 18 20 21 21 20 20 20 20 18 18
27 27 23 24 23 23 23 25 30 28 27 27 29 31 31 31 28 28 33 33 30 29 28 26 25 24 22 22 22 21 19 16 14 12 11 10 8 7 6 6 6 6 7 9 11 13 13 12 11 10 12 14 12 13 15 15 15 16 16 17 18 18 18 18 18 17 15 14 14 14 14 15 17 19 21 21 21 21 21 20 18 17 16 16 14
28 27 23 24 24 24 24 24 28 26 26 26 28 30 30 30 29 32 36 33 30 29 28 28 27 25 24 23 23 21 18 16 14 13 11 8 7 6 6 6 6 8 11 13 14 13 12 12 11 11 12 11 13 14 15 16 16 16 17 18 19 20 19 20 20 17 15 16 16 17 18 19 20 21 22 22 22 20 20 18 16 13 12 11 9
27 27 24 24 24 24 24 24 26 25 26 26 27 28 29 31 32 36 36 31 30 29 28 28 27 25 25 24 23 20 18 16 15 13 10 8 7 6 5 6 8 12 15 15 15 14 12 12 13 13 11 11 14 16 16 17 15 16 18 18 19 20 20 22 22 20 19 19 19 20 21 21 21 20 20 21 21 19 17 15 12 9 7 6 4
28 28 24 24 25 25 24 24 25 25 28 28 27 28 30 33 33 36 34 29 29 29 28 28 27 26 25 24 22 21 19 17 15 12 9 8 7 5 6 8 10 14 16 16 16 16 15 14 14 15 12 12 15 17 17 18 16 18 19 19 19 19 22 24 23 23 22 21 21 20 20 21 21 19 19 18 18 16 12 9 7 4 3 2 3
32 30 27 25 26 25 24 25 25 27 31 30 29 29 30 33 32 34 32 30 30 29 29 28 28 27 25 24 22 21 18 16 15 11 9 8 7 7 9 11 13 14 15 17 16 16 15 14 15 15 13 12 15 18 19 19 19 20 21 21 21 20 23 25 25 25 24 23 21 19 18 19 21 19 17 15 13 10 7 5 2 2 3 3 3
33 34 30 27 26 25 25 25 24 29 32 29 29 29 30 32 32 32 31 30 31 30 30 29 29 27 26 24 21 20 18 17 15 11 10 9 9 10 11 13 15 15 15 18 18 17 16 15 14 13 12 12 16 20 20 20 20 20 21 20 19 21 23 24 25 24 23 22 19 17 16 16 17 16 13 9 7 4 1 2 4 5 4 4 4
36 36 32 28 27 26 25 25 26 32 33 29 29 29 30 32 31 31 31 31 30 30 31 30 30 28 26 24 21 20 19 18 14 12 11 10 12 12 13 16 17 16 16 18 18 17 17 15 14 14 14 15 18 20 20 22 21 19 19 18 18 21 24 25 24 24 22 20 18 17 16 13 12 9 6 4 2 2 6 8 7 6 5 4 4
37 36 33 31 29 27 27 26 27 33 34 31 30 29 31 32 30 31 31 31 31 31 32 31 31 29 26 24 21 20 20 18 14 13 13 13 14 14 16 18 19 19 17 18 17 16 16 15 15 15 17 19 20 20 20 22 21 19 17 16 19 21 21 23 22 21 20 18 15 13 11 9 8 5 2 2 3 5 8 7 5 6 6 6 5
36 37 36 34 31 27 27 28 29 33 35 34 31 30 32 32 31 32 32 34 34 33 33 32 31 28 26 24 21 21 20 17 15 15 15 14 16 16 17 19 20 20 19 18 18 17 15 15 16 15 18 21 20 18 19 21 21 20 18 15 17 19 18 20 21 18 17 15 11 8 6 4 3 2 4 5 6 8 7 5 6 7 7 8 8
36 38 38 36 33 29 28 29 30 33 36 35 33 32 32 33 34 35 34 34 34 33 33 32 30 28 26 24 23 23 20 17 16 16 16 16 16 17 18 20 20 19 18 18 17 17 15 15 16 15 17 20 19 18 17 18 20 19 18 16 15 17 17 17 18 17 16 12 7 5 3 1 1 4 6 7 8 7 5 5 7 8 9 11 11
36 37 39 38 35 33 31 30 30 34 37 36 36 36 34 35 36 35 33 33 33 32 32 32 30 28 27 25 24 23 20 17 18 17 17 17 17 18 19 20 20 18 17 17 17 17 16 15 16 16 16 17 18 18 16 16 20 18 16 16 15 16 16 14 12 12 12 10 7 4 3 3 4 5 5 5 6 4 5 6 8 10 10 12 14
33 34 36 39 38 36 34 31 30 34 38 38 38 40 38 37 36 34 33 32 32 32 32 31 29 27 27 27 26 22 19 18 19 18 18 18 19 19 20 20 19 18 17 17 18 18 17 16 16 17 17 15 15 20 19 16 18 18 16 16 15 15 14 12 10 9 9 9 9 7 6 5 5 4 3 3 3 4 7 9 10 11 11 12 14
32 34 35 38 39 38 35 34 32 33 38 40 40 41 40 38 36 35 34 32 32 32 32 31 29 27 27 27 25 21 19 19 19 19 19 19 20 20 20 20 19 18 17 18 19 18 17 16 17 17 17 15 15 21 21 17 17 17 16 15 15 14 11 10 9 8 8 8 8 7 6 5 4 2 2 2 1 4 7 9 11 12 12 12 13
34 36 37 36 37 38 37 36 34 34 37 41 42 41 40 39 38 36 35 33 33 32 31 32 31 28 27 26 23 20 19 19 20 20 19 20 20 20 20 20 19 19 18 18 19 18 16 16 16 17 17 16 17 19 19 17 18 17 17 16 14 14 12 11 11 10 10 9 8 6 5 4 4 3 3 3 1 3 4 6 9 12 12 12 13
36 39 40 40 38 38 38 37 36 35 37 42 44 42 40 40 39 36 35 34 32 31 31 31 31 29 27 25 22 21 21 20 20 20 20 20 21 20 19 20 20 20 18 18 19 17 16 16 16 17 17 17 18 18 18 18 18 16 17 15 13 14 13 13 12 12 11 10 8 6 5 4 4 4 3 3 2 2 2 4 7 10 12 12 12
33 40 43 42 39 37 38 37 37 36 37 43 45 43 42 41 39 36 35 34 32 32 32 30 30 29 27 24 23 22 22 22 22 21 20 20 21 20 19 20 20 20 20 19 17 17 18 17 17 18 16 18 20 19 20 20 18 16 16 13 13 13 12 11 11 10 10 9 8 7 6 5 4 4 3 3 2 2 2 2 5 8 11 12 12
24 35 42 44 39 36 37 36 37 38 37 42 46 46 44 41 39 36 35 34 34 32 31 30 29 28 26 24 24 25 24 24 24 23 22 22 21 21 20 21 21 19 20 20 17 17 19 17 19 20 17 18 20 19 19 20 17 17 16 14 14 12 11 10 10 11 11 10 9 7 6 5 5 5 4 4 3 2 2 1 3 5 9 10 11
21 25 31 38 41 39 39 39 38 40 38 41 47 47 44 41 39 36 34 34 34 33 31 31 29 27 26 26 26 26 26 26 27 25 24 23 22 22 22 21 21 20 20 20 19 18 18 17 19 20 18 19 19 18 19 19 16 16 17 16 15 13 11 11 11 12 11 10 9 7 6 6 6 5 5 5 4 3 3 2 0 2 4 6 9
22 21 21 25 32 36 40 43 41 40 40 41 44 44 42 42 40 36 34 33 34 34 33 32 30 28 27 27 27 28 28 28 29 27 25 25 23 23 22 21 21 21 20 20 20 19 19 18 19 20 19 20 19 18 20 19 17 17 18 17 15 13 12 12 12 12 11 10 9 7 6 6 6 6 6 6 5 4 4 4 3 2 1 2 4
19 20 21 22 25 28 34 40 42 42 42 41 41 43 42 42 40 37 36 35 36 35 34 32 29 28 28 28 29 29 30 30 30 28 26 26 24 23 22 21 20 20 20 21 21 20 18 19 20 20 20 20 20 20 20 20 19 19 19 17 14 12 13 14 13 12 11 10 9 8 7 7 7 7 7 6 6 5 5 5 5 5 4 3 2
16 17 19 19 24 27 31 35 40 42 44 42 42 44 42 41 40 38 38 37 37 36 33 32 30 29 29 29 30 31 31 30 30 28 27 27 25 23 21 20 20 20 21 21 21 20 18 19 21 21 22 22 21 22 22 23 22 20 19 17 13 12 15 15 13 13 12 11 10 9 8 8 8 8 7 7 6 6 6 6 6 6 6 6 6
15 15 16 16 20 27 30 31 36 41 45 44 43 45 43 41 41 40 40 39 38 37 34 33 31 30 30 30 31 32 31 30 30 29 28 28 26 23 21 20 20 21 22 22 21 21 19 20 21 21 23 23 22 22 24 24 23 20 18 17 13 14 16 15 14 13 13 12 11 10 10 10 9 8 8 7 7 7 7 7 7 7 7 7 7
16 16 15 15 17 23 28 30 29 34 46 48 46 48 46 43 45 44 43 42 39 38 36 34 33 32 31 32 33 33 33 31 31 30 29 28 26 23 21 20 20 22 22 22 21 21 21 22 22 22 24 25 24 23 23 24 22 19 18 16 16 17 17 16 15 14 13 13 12 11 11 10 10 9 9 8 8 8 8 8 7 7 7 7 7
16 17 16 14 15 16 23 30 28 27 40 48 48 50 49 45 47 47 44 43 41 39 37 35 34 33 32 33 34 34 34 32 31 30 29 28 26 23 22 22 21 22 22 22 22 22 22 23 24 24 24 25 25 25 24 22 21 20 19 18 19 19 18 17 16 15 14 14 13 13 12 12 11 10 10 9 9 9 8 8 8 7 7 7 7
16 16 16 16 15 13 17 24 27 27 33 44 48 48 47 47 46 46 46 44 43 40 38 36 35 34 33 34 35 35 33 32 31 31 30 29 26 24 24 23 23 22 23 24 23 22 23 24 24 25 26 26 26 25 25 24 22 21 20 21 21 19 18 18 17 16 16 15 15 14 13 13 12 12 11 10 9 9 8 8 8 8 7 7 7
19 17 16 16 17 16 16 19 21 25 29 37 44 45 44 46 46 45 46 45 42 41 38 37 36 36 36 36 36 34 33 33 33 32 31 30 28 27 25 25 24 23 24 25 24 23 24 25 26 26 27 28 27 26 25 25 24 22 21 20 21 19 17 17 18 17 18 17 16 15 14 14 13 12 11 10 9 9 9 9 8 8 7 7 6
23 23 20 18 17 17 20 23 21 22 28 32 39 44 43 44 43 42 43 41 39 40 39 38 38 37 38 38 36 33 33 33 34 34 32 29 28 28 26 25 25 24 24 25 25 25 25 26 27 27 26 27 28 28 26 26 25 24 22 18 18 17 13 16 21 20 19 18 17 16 16 15 15 13 12 11 10 10 9 9 8 8 7 7 6
23 24 25 22 20 18 19 25 26 23 25 30 35 42 44 42 41 42 41 40 41 41 41 40 40 39 40 40 37 34 33 32 32 34 33 28 25 26 26 26 26 26 24 25 25 25 26 27 27 27 27 26 26 27 27 27 26 25 23 18 15 14 13 17 20 19 19 19 18 18 17 16 16 15 14 13 11 11 10 9 8 8 7 6 6
22 22 25 25 23 21 19 24 27 28 26 29 34 39 43 44 44 44 44 46 47 46 43 42 41 41 41 40 39 37 35 33 33 34 32 28 25 25 26 26 27 27 26 25 25 25 26 27 27 27 27 26 25 24 25 28 28 27 25 19 14 12 14 16 16 16 18 20 19 19 18 18 16 16 15 13 13 12 11 10 9 8 7 7 7
23 21 24 26 25 25 22 23 26 28 28 29 33 36 39 43 47 47 47 48 50 47 45 44 42 41 41 40 40 38 36 34 34 34 31 28 27 27 28 28 29 28 27 27 26 26 26 27 27 26 26 26 26 24 23 26 28 28 27 24 19 14 11 12 14 15 15 16 19 19 19 18 17 16 15 14 14 13 11 10 9 8 7 7 7
24 23 24 26 27 27 26 24 25 26 26 25 29 33 36 38 42 47 50 50 49 48 45 44 42 41 41 41 40 39 37 35 35 33 31 28 27 28 28 30 30 29 29 29 28 27 27 27 28 27 27 27 27 25 21 22 26 27 27 27 23 18 14 12 12 13 12 13 16 18 18 18 17 17 16 15 15 13 12 10 9 8 7 8 8
28 28 27 27 28 29 29 28 27 27 27 22 20 24 29 33 37 41 46 48 47 47 46 44 41 39 39 39 40 39 38 37 35 34 32 30 28 28 28 29 30 30 31 30 30 29 28 29 29 29 29 28 28 26 21 18 21 23 24 24 23 20 18 16 15 15 14 13 14 15 17 17 17 17 17 17 16 14 12 11 9 8 8 8 9
30 31 30 29 29 30 32 32 30 29 29 28 22 19 18 23 31 37 39 43 46 47 46 43 41 39 37 37 38 39 39 38 37 35 34 32 30 29 28 27 28 30 31 31 31 31 30 29 29 29 29 28 28 27 22 17 18 20 21 22 22 21 20 19 19 18 17 16 15 15 15 16 17 17 17 17 16 14 12 11 9 9 9 9 10
30 31 32 33 31 31 33 34 33 32 32 32 31 27 20 17 24 32 36 40 43 44 44 42 40 40 38 37 36 37 39 38 37 36 35 34 32 30 28 27 28 29 30 30 29 29 29 28 28 28 27 27 27 27 23 19 19 20 22 22 21 21 20 20 20 19 18 18 17 16 16 17 17 17 17 16 15 14 12 11 10 10 10 10 10
Wind_Direction
186 186 186 179 179 178 179 181 181 180 179 177 173 175 173 173 171 166 165 161 161 159 154 151 147 143 141 141 143 148 149 145 140 131 126 123 122 120 118 115 109 109 106 106 105 88 51 26 23 31 48 72 87 93 101 104 104 113 121 123 121 115 113 106 96 93 89 91 95 92 89 84 85 88 89 88 87 86 83 81 79 81 86 75 69
187 184 185 180 179 180 180 182 181 180 181 178 174 175 171 173 174 170 169 166 164 160 154 150 147 145 143 144 148 153 154 149 143 135 130 128 128 126 124 122 120 116 113 114 106 75 29 11 11 17 35 75 91 96 100 97 102 112 119 123 124 121 119 111 101 99 95 94 94 93 92 87 85 83 82 83 84 87 86 85 84 81 88 86 81
184 181 183 180 179 181 180 182 181 180 182 182 179 176 175 174 175 175 172 167 163 158 153 151 149 147 147 147 152 158 157 152 145 138 136 135 133 132 129 127 126 120 113 107 99 49 1 2 7 17 40 86 99 102 103 100 104 110 114 119 121 121 117 112 109 108 105 105 101 99 99 99 101 91 80 79 79 82 87 91 93 90 84 83 83
184 180 181 180 180 180 180 183 181 181 184 185 183 179 178 176 176 178 174 168 164 158 154 154 153 151 150 151 157 161 158 154 147 143 142 140 138 135 132 129 127 121 118 104 90 280 323 345 4 32 69 103 111 111 109 104 107 110 112 115 118 118 115 114 112 110 109 109 104 98 96 104 107 91 77 76 76 76 83 90 100 100 86 85 85
184 178 178 180 179 181 182 184 182 182 185 186 184 180 179 177 177 178 175 169 164 160 158 158 157 154 153 156 161 161 159 157 150 147 145 142 140 137 134 132 130 124 129 161 283 284 307 324 352 64 102 118 124 119 115 110 110 111 113 115 117 116 115 113 110 109 107 107 100 95 94 101 100 84 76 73 73 76 82 91 99 101 87 85 82
184 178 176 178 178 183 184 183 184 183 186 186 183 180 178 178 178 179 176 170 167 165 164 164 160 158 157 159 162 160 160 160 153 149 148 145 142 139 139 136 133 130 154 261 283 288 298 308 324 109 125 132 132 124 120 117 115 114 115 116 117 116 116 113 110 109 106 103 94 95 98 96 92 84 80 74 75 77 79 89 101 107 95 89 80
184 178 175 177 178 184 186 184 184 185 187 187 183 180 178 180 180 179 177 173 173 171 169 167 162 161 159 160 161 158 159 161 155 150 150 147 144 143 145 141 140 163 240 264 278 284 288 291 277 144 139 138 134 129 126 122 119 118 118 118 119 118 118 116 114 112 106 100 91 98 102 96 90 80 74 73 75 78 78 80 87 99 97 96 82
182 175 174 177 180 185 186 185 186 186 189 190 185 182 179 180 182 180 178 174 173 172 171 167 163 164 161 162 162 159 160 163 159 155 154 148 145 145 147 136 136 273 280 279 282 280 280 266 184 147 142 140 135 133 131 127 123 121 122 121 121 121 120 120 116 109 100 93 91 100 103 95 86 71 66 71 73 75 77 76 79 86 89 91 88
182 174 174 175 182 187 186 187 187 185 189 191 188 184 181 179 182 183 180 176 174 173 171 167 164 166 166 166 165 165 163 164 166 166 163 156 154 152 153 90 319 306 295 288 285 281 277 212 158 145 142 141 137 135 134 131 128 126 126 125 123 121 119 115 108 101 93 87 83 91 100 97 89 69 65 71 73 73 75 77 82 87 89 87 85
180 175 176 176 184 188 187 189 186 185 188 190 189 186 184 180 182 185 184 179 177 176 173 169 168 168 169 170 169 170 172 172 177 184 180 174 177 190 255 296 299 298 289 283 280 276 260 166 148 145 144 142 140 140 138 134 132 132 131 127 122 119 114 108 101 96 89 86 85 88 91 88 86 77 73 74 73 73 75 78 83 87 87 82 78
176 177 177 177 186 187 186 188 187 187 188 189 189 188 187 182 182 186 188 184 181 180 177 174 174 173 171 173 175 178 184 187 191 196 194 192 203 235 275 289 291 288 281 280 280 257 193 152 148 147 144 143 144 142 140 136 137 137 132 126 123 119 113 108 100 93 91 89 91 90 83 81 83 83 81 78 76 78 79 79 80 82 82 80 81
175 178 178 179 186 186 185 187 187 187 189 192 190 189 191 187 183 184 189 188 184 183 180 179 179 178 176 176 179 181 190 203 205 204 202 205 222 252 276 282 282 280 282 287 281 241 156 145 151 152 145 144 145 144 142 140 142 138 130 125 121 116 111 105 99 95 94 93 91 89 86 85 90 90 86 85 83 82 82 82 81 82 85 85 87
176 179 179 181 186 186 185 188 189 188 191 195 192 192 192 188 184 184 188 188 186 187 184 181 179 180 180 180 181 178 184 201 203 201 203 206 220 239 259 271 276 278 285 278 265 230 167 152 153 155 149 145 145 145 145 144 143 137 128 125 120 113 109 103 100 99 97 98 95 91 86 87 95 95 92 91 90 89 89 89 89 92 93 91 92
176 179 179 180 184 186 187 189 190 191 195 197 195 195 192 188 186 186 187 186 186 187 185 183 180 181 183 185 181 172 176 184 183 185 191 196 205 223 244 259 272 277 276 262 240 206 171 157 152 153 152 147 145 145 145 144 141 135 130 126 120 115 111 106 103 103 102 102 96 89 85 90 98 96 98 97 97 99 96 97 98 98 98 98 97
178 179 178 178 182 186 189 191 190 193 200 200 194 192 190 187 188 188 187 183 185 187 185 184 181 182 186 186 177 173 179 178 176 181 185 191 200 215 237 250 264 270 258 242 216 197 165 148 146 149 150 148 144 144 143 142 139 135 132 128 123 119 116 112 109 108 107 102 92 87 90 98 101 99 102 102 105 105 103 105 103 101 103 104 101
181 181 178 176 179 184 188 192 194 197 203 202 191 187 185 187 190 190 186 182 184 186 185 185 182 185 188 182 176 178 185 182 181 185 186 190 198 214 234 244 249 248 228 214 190 169 145 135 135 140 145 145 140 143 143 139 138 135 132 129 125 124 121 115 112 111 105 97 90 91 98 101 101 103 106 106 109 108 109 111 108 107 105 104 103
182 182 179 178 177 179 185 190 195 198 203 201 189 185 185 189 192 188 183 180 183 186 187 187 186 190 188 180 180 184 188 187 186 188 189 192 200 219 235 244 233 214 194 181 147 124 118 121 123 125 131 135 139 144 142 137 137 134 132 130 128 128 125 118 111 107 100 95 98 102 104 103 104 110 111 111 111 110 115 115 113 114 107 105 108
182 182 180 180 177 178 182 188 195 199 200 195 186 185 188 190 189 183 180 180 183 185 186 189 189 190 187 184 185 187 190 189 190 189 190 198 212 227 238 241 221 193 170 152 131 119 119 123 122 123 127 135 144 142 137 136 136 134 134 134 133 131 128 120 110 103 98 102 108 109 107 108 111 114 112 112 117 116 117 113 112 118 109 106 107
184 184 181 180 179 181 183 187 193 195 192 189 186 186 187 186 183 179 178 180 183 185 187 189 188 187 187 187 188 189 190 189 191 190 192 209 224 233 236 231 202 169 150 140 133 128 130 130 129 131 136 146 143 133 133 133 132 136 138 139 137 132 129 122 112 109 107 109 113 112 112 116 117 119 119 119 123 121 116 110 108 113 108 100 92
185 185 184 183 182 184 185 189 190 189 187 184 182 182 182 179 178 177 177 180 185 187 188 190 189 188 189 189 189 189 187 188 190 190 198 215 227 231 220 202 178 154 142 139 136 131 131 133 139 143 150 156 138 130 130 127 127 133 136 134 133 130 124 119 116 116 117 117 119 118 119 124 120 119 123 124 127 128 121 111 103 103 98 83 56
188 187 187 186 186 187 186 188 188 187 184 177 175 177 177 175 174 176 178 183 187 189 189 192 192 191 191 189 189 188 186 187 189 193 204 217 219 209 192 177 162 151 146 146 139 135 141 148 154 154 160 156 136 129 127 124 123 124 126 125 125 126 120 118 119 119 122 123 121 123 125 128 127 120 117 122 130 133 130 118 106 95 63 15 352
191 189 190 189 188 189 188 187 187 186 179 173 175 175 174 172 174 178 181 186 189 191 192 192 192 191 190 188 188 188 187 188 189 197 207 210 203 185 178 165 152 149 151 149 144 144 149 160 165 162 161 150 134 131 127 124 122 123 130 132 127 126 124 123 123 121 124 124 121 126 124 122 132 134 124 123 131 134 136 136 111 5 347 334 324
194 193 192 191 191 190 188 188 187 184 179 176 178 178 177 176 179 182 184 188 190 192 193 193 192 190 187 187 187 188 190 189 191 202 206 200 186 177 171 160 153 154 153 146 146 152 154 161 166 163 158 145 136 134 131 129 128 129 136 141 137 132 133 133 127 123 127 128 126 127 119 118 136 145 139 134 141 146 136 320 321 327 325 315 316
199 198 194 191 193 194 190 189 189 184 182 181 179 181 184 183 185 186 186 189 191 193 195 194 193 190 186 186 188 190 191 191 195 202 198 191 179 173 166 159 157 157 153 143 142 151 156 158 157 154 153 148 143 137 136 138 139 141 140 141 144 141 140 141 133 122 125 131 130 124 114 122 147 154 155 167 202 270 323 324 321 343 8 354 347
203 201 198 197 195 195 192 191 192 187 187 185 181 185 187 187 187 187 188 189 191 193 194 193 191 191 192 193 193 192 191 193 200 200 191 185 178 171 165 163 160 157 153 145 144 154 157 154 150 149 151 149 146 141 142 146 147 151 151 145 147 147 144 148 146 129 126 131 130 126 114 123 158 176 203 270 304 318 328 335 351 22 31 20 16
207 205 204 203 198 195 193 193 195 191 189 186 185 188 188 189 189 188 190 190 191 192 192 192 191 195 200 199 196 195 193 197 203 199 191 184 177 171 168 166 163 159 155 151 151 157 157 153 151 150 151 149 147 147 150 153 153 156 158 154 153 158 156 155 158 151 144 139 130 131 125 117 168 244 303 316 330 336 342 8 39 47 40 33 35
210 210 209 206 200 199 196 194 199 197 191 188 190 190 189 191 190 191 192 192 192 193 193 193 195 199 202 200 196 195 195 200 204 196 189 182 176 173 169 167 164 160 157 158 157 158 161 158 156 155 153 152 153 154 155 155 158 158 160 161 159 166 167 159 159 161 160 158 145 137 141 111 294 293 307 319 330 343 6 42 57 62 59 58 57
212 211 211 210 203 203 203 197 201 202 194 192 194 192 191 193 192 192 194 195 194 194 195 195 198 202 202 199 194 196 199 202 201 194 188 182 176 173 170 167 165 163 162 165 166 168 169 160 158 161 158 158 163 162 155 152 158 160 162 165 165 171 174 169 167 170 174 183 192 197 216 250 275 284 309 324 331 360 50 65 68 73 72 72 68
212 211 211 212 206 205 207 201 203 204 199 199 199 196 195 195 194 195 195 197 196 196 198 198 202 205 204 198 192 197 204 203 199 193 189 183 177 174 172 172 170 170 169 172 176 178 174 164 162 166 163 165 176 175 161 151 159 162 162 168 171 172 172 171 177 183 186 197 206 215 227 238 255 274 311 319 342 50 72 74 75 77 78 75 72
207 209 211 213 210 208 209 209 208 205 203 203 200 199 200 198 198 199 198 199 199 200 202 202 203 206 204 197 194 201 205 203 199 194 188 182 178 177 177 176 178 179 177 177 181 183 178 170 170 170 168 172 179 177 170 162 163 166 166 169 171 170 173 180 185 191 194 200 209 218 227 234 246 263 279 266 60 73 77 80 82 78 77 77 74
205 206 207 209 210 209 211 215 214 210 208 204 201 202 202 201 201 201 202 202 200 202 204 204 203 203 201 198 200 203 204 202 198 193 187 183 180 180 182 180 182 185 181 181 183 185 183 176 178 176 170 174 174 171 175 175 169 168 169 169 174 179 184 193 197 201 204 208 214 222 230 242 256 254 238 212 167 91 78 84 91 82 77 78 76
201 204 204 203 206 209 213 216 218 217 212 205 203 204 204 203 203 202 205 205 202 203 205 205 202 199 198 201 205 203 201 199 195 193 188 184 182 182 184 182 183 184 182 185 185 187 186 181 182 177 172 177 173 173 181 178 171 171 170 172 185 191 192 197 202 202 203 207 207 207 215 239 256 249 226 205 187 121 93 87 98 88 79 77 76
198 201 204 203 204 205 209 214 219 220 212 207 205 205 205 205 203 202 204 204 203 203 204 205 201 199 201 204 207 203 198 195 193 193 189 186 185 185 185 180 181 182 182 182 184 185 179 179 183 176 180 184 175 180 186 175 172 178 180 190 196 194 198 204 203 191 186 189 190 196 210 231 233 226 228 224 221 181 152 102 102 91 81 77 74
206 198 201 203 202 201 203 206 214 218 213 209 207 207 208 205 203 203 203 203 203 203 202 202 200 201 205 208 207 201 196 193 193 191 191 191 187 187 185 181 181 182 185 182 181 185 173 176 188 180 183 186 176 182 187 175 175 183 188 200 202 201 207 203 189 179 180 185 189 202 216 220 214 214 228 234 240 228 201 137 101 85 81 77 73
231 212 208 204 199 197 200 201 207 215 214 209 209 210 208 206 204 203 203 204 202 201 199 200 202 204 207 208 205 201 197 194 194 193 193 194 190 188 188 188 185 183 189 186 182 184 176 179 190 186 186 186 183 184 183 179 181 191 197 202 206 212 209 190 180 182 186 192 200 214 222 219 218 224 232 238 246 247 247 253 346 65 74 74 72
243 243 243 225 207 198 198 200 203 212 214 211 212 212 208 207 206 203 203 203 200 199 200 201 204 205 207 207 203 200 199 197 196 195 194 195 194 190 189 190 190 188 191 191 187 186 182 185 188 189 191 188 188 186 183 186 191 198 201 203 209 211 197 183 184 190 193 200 213 224 226 226 232 238 242 247 252 254 266 279 291 302 338 35 64
242 244 248 249 240 217 200 199 200 208 215 213 212 212 209 209 206 203 202 201 201 202 202 204 205 206 207 206 203 201 201 200 198 196 196 197 195 192 189 189 192 193 193 192 191 189 186 188 187 188 192 190 190 189 190 195 199 201 201 204 208 198 186 186 191 196 202 211 221 225 227 233 239 243 245 250 255 264 275 285 291 291 293 293 300
236 237 235 244 250 231 210 201 196 203 216 216 212 213 211 208 205 203 203 202 203 204 205 206 206 207 208 207 204 203 202 201 200 199 199 200 197 193 190 190 192 193 194 193 191 191 189 192 192 188 190 193 193 195 197 198 200 202 202 204 204 190 187 192 196 201 208 215 219 224 228 233 236 240 245 250 259 268 278 284 287 289 288 288 292
226 229 229 231 238 233 224 210 196 197 210 216 212 210 209 205 202 203 204 204 205 206 206 207 208 207 207 206 204 203 202 202 202 202 203 203 201 196 192 193 196 194 195 194 192 193 192 192 196 194 192 194 197 199 201 201 202 202 200 200 196 191 192 196 201 207 213 215 219 224 227 232 234 238 244 252 260 267 275 279 281 285 289 294 300
223 218 216 215 221 231 233 225 212 198 202 210 210 208 208 203 201 204 205 206 206 206 207 208 209 208 206 204 203 202 203 203 204 205 205 204 202 200 197 196 199 199 197 196 195 197 195 194 197 200 198 195 198 203 205 207 205 199 195 195 192 191 194 199 206 210 214 217 221 226 229 231 235 240 248 255 261 266 270 273 276 282 288 293 299
222 215 208 203 205 221 234 232 227 207 198 205 210 208 207 204 202 204 205 206 206 206 208 208 208 207 205 204 202 203 204 205 204 204 204 203 203 207 204 199 201 203 202 201 200 199 198 197 197 201 203 199 198 202 208 212 208 198 192 189 189 192 196 201 207 211 215 219 223 227 229 232 238 244 250 256 261 266 270 272 277 280 283 288 293
219 215 206 196 193 207 236 239 234 225 206 204 208 209 208 207 205 205 205 206 207 207 208 208 207 206 204 203 202 203 206 209 206 204 203 203 205 211 210 205 204 205 205 206 206 204 204 203 201 201 202 203 204 205 206 207 205 201 195 187 186 190 197 203 207 212 215 218 222 225 229 234 241 246 251 256 259 263 267 270 273 275 277 282 289
223 219 213 203 196 199 227 246 245 240 227 211 207 209 211 208 203 206 208 207 206 207 209 209 206 205 204 202 202 205 209 212 209 205 205 208 212 215 214 210 208 207 207 207 208 209 209 208 207 205 203 203 206 209 207 205 203 199 193 188 188 188 194 204 208 213 216 218 222 225 231 237 241 247 250 251 253 257 261 264 266 268 272 278 287
230 227 226 219 211 203 216 238 250 248 240 225 210 206 212 210 204 208 212 211 211 209 209 209 207 206 205 204 205 208 211 212 210 208 211 218 220 216 214 214 213 211 211 210 209 210 211 210 210 210 210 206 205 207 208 208 207 198 188 185 189 188 191 207 210 212 216 218 223 227 232 238 242 246 247 247 249 252 255 257 259 263 269 276 283
233 233 233 230 227 216 209 225 241 247 239 232 220 209 211 215 214 213 210 211 216 215 210 208 207 207 207 207 207 208 209 209 208 208 214 222 222 214 212 216 216 214 213 215 215 214 213 212 212 212 214 214 212 210 209 208 207 204 198 189 186 190 206 216 210 211 218 220 224 229 233 238 241 244 246 246 248 250 252 253 257 264 270 277 281
235 233 233 233 233 226 209 207 225 240 236 228 226 220 215 215 217 216 211 210 213 214 213 211 209 208 208 208 207 207 210 209 208 210 217 224 224 217 215 218 219 217 214 216 218 219 217 216 215 214 215 218 221 219 214 208 205 207 209 208 204 204 218 217 205 209 220 223 228 231 234 238 240 244 246 247 249 249 250 252 257 264 271 278 281
237 234 232 230 228 227 219 203 207 227 234 227 224 226 223 217 214 214 214 215 215 214 214 214 212 210 210 210 208 208 212 211 210 215 223 227 224 220 219 220 220 218 216 216 217 218 219 219 217 216 216 218 222 223 219 213 209 209 210 215 218 218 224 222 215 217 220 223 229 232 235 238 239 243 245 248 249 246 246 250 255 262 269 276 279
237 236 233 229 224 222 222 213 201 206 220 227 224 223 225 223 218 214 213 214 217 217 215 214 214 213 212 211 209 210 213 213 214 219 226 227 224 222 222 223 221 218 216 216 217 216 218 218 215 215 216 218 220 222 223 220 217 215 214 217 221 226 235 240 239 238 231 227 229 230 234 237 240 244 246 248 248 245 244 247 253 262 270 275 278
236 236 235 232 226 219 217 217 211 200 196 205 218 219 222 225 223 220 218 215 213 215 217 215 215 217 216 213 211 211 213 215 217 221 225 227 225 224 226 226 223 220 217 214 214 214 215 216 214 213 214 216 218 220 223 226 224 223 222 222 225 230 236 241 244 243 239 237 238 238 237 237 241 245 248 249 247 244 243 245 253 262 270 275 277
235 236 236 235 230 221 215 215 216 211 197 189 198 211 220 228 226 222 224 222 217 215 215 213 214 216 218 218 216 215 217 218 220 222 224 226 227 227 228 227 224 222 219 215 212 212 212 214 215 215 215 215 216 217 220 225 224 223 226 227 228 232 233 236 239 241 240 242 246 250 246 241 242 246 247 246 245 243 242 246 254 260 266 271 275
233 234 235 235 233 227 220 217 216 218 211 199 197 204 216 236 237 226 223 224 223 220 216 213 215 217 218 220 221 221 222 223 224 226 226 226 226 228 231 228 224 223 222 216 212 212 212 212 213 214 216 217 217 217 216 218 216 215 222 229 234 237 236 236 242 246 247 247 249 252 248 239 238 243 244 243 242 242 243 246 253 259 263 268 272